|
Resurs 01 Rocket - Orbit
|
Elk Forest;
07:34:41
| Home | Info | Passes |
|
View from above orbital plane
|
View from above satellite
|
Ground track
|
The orbit data is extracted from the following two-line orbital elements,
1 23343U 94074B 13143.03721130 .00000399 00000-0 66111-4 0 7075
2 23343 098.2061 135.5244 0008227 143.7866 248.1802 14.75706884997551
| Epoch (UTC): | 23 May 2013 00:53:35 |
| Eccentricity: | 0.0008227 |
| inclination: | 98.2061° |
| perigee height: | 637 km |
| apogee height: | 648 km |
| right ascension of ascending node: | 135.5244° |
| argument of perigee: | 143.7866° |
| revolutions per day: | 14.75706884 |
| mean anomaly at epoch: | 248.1802° |
| orbit number at epoch: | 99755 |
The dashed part of the orbit path shows where the satellite is in the earth's shadow,
|
|